This demonstration page uses our WeatherBlox Daily Observations layout. Learn more.

Left ArrowRight Arrow

44.8408, -93.29828

Hourly Observations for December 9, 2017

Temp ( °F °C ) Dew Point ( °F °C ) Humidity (%) Winds ( mph kmh ) Pressure ( in mb ) Visibility ( mi km ) Precip ( " mm )
12:53 am 00:53 Cloudy 27 -2.8 15 -9.4 61 61 NNW 21 33 29.85 1011 10 16 0.00 0.00
1:53 am 01:53 Cloudy 25 -3.9 14 -10 63 63 N 20 31 29.89 1012 10 16 0.00 0.00
2:53 am 02:53 Cloudy 24 -4.4 15 -9.4 68 68 N 20 31 29.93 1014 10 16 0.00 0.00
3:53 am 03:53 Cloudy 23 -5 16 -8.9 74 74 N 15 24 29.96 1014 10 16 0.00 0.00
4:53 am 04:53 Cloudy 23 -5 14 -10 68 68 NNW 16 26 30.00 1016 10 16 0.00 0.00
5:53 am 05:53 Cloudy 21 -6.1 12 -11.1 68 68 N 15 24 30.04 1017 10 16 0.00 0.00
6:53 am 06:53 Cloudy 20 -6.7 11 -11.7 68 68 N 14 22 30.06 1018 10 16 0.00 0.00
7:53 am 07:53 Cloudy 20 -6.7 11 -11.7 68 68 N 15 24 30.08 1019 10 16 0.00 0.00
8:53 am 08:53 Cloudy with Light Snow 19 -7.2 11 -11.7 71 71 N 12 19 30.12 1020 9 14 0.00 0.03
9:53 am 09:53 Cloudy with Light Snow 19 -7.2 11 -11.7 71 71 NNW 12 19 30.14 1021 9 14 0.00 0.03
10:53 am 10:53 Mostly Cloudy 20 -6.7 10 -12.2 65 65 N 13 20 30.15 1021 10 16 0.00 0.03
11:12 am 11:12 Mostly Cloudy 20 -6.7 10 -12.2 65 65 N 10 17 30.18 1022 10 16 0.00 0.00
11:36 am 11:36 Mostly Cloudy 21 -6.1 11 -11.7 65 65 N 8 13 30.18 1022 10 16 0.00 0.00
11:53 am 11:53 Cloudy 20 -6.7 12 -11.1 71 71 NNW 13 20 30.14 1021 10 16 0.00 0.00
12:53 pm 12:53 Cloudy 21 -6.1 12 -11.1 68 68 N 9 15 30.13 1020 10 16 0.00 0.00
1:53 pm 13:53 Mostly Cloudy 22 -5.6 12 -11.1 66 66 NNW 9 15 30.12 1020 10 16 0.00 0.00
2:53 pm 14:53 Cloudy 21 -6.1 12 -11.1 68 68 NW 7 11 30.12 1020 10 16 0.00 0.00
3:53 pm 15:53 Mostly Cloudy 22 -5.6 13 -10.6 68 68 WSW 7 11 30.11 1020 10 16 0.00 0.00
4:20 pm 16:20 Mostly Cloudy 22 -5.6 13 -10.6 68 68 WSW 12 19 30.12 1020 10 16 0.00 0.00
4:53 pm 16:53 Mostly Cloudy 21 -6.1 13 -10.6 71 71 WSW 5 7 30.10 1019 10 16 0.00 0.00
5:53 pm 17:53 Mostly Cloudy 22 -5.6 14 -10 71 71 SW 8 13 30.08 1019 10 16 0.00 0.00
6:53 pm 18:53 Cloudy 22 -5.6 15 -9.4 75 75 SW 8 13 30.06 1018 10 16 0.00 0.00
7:53 pm 19:53 Cloudy 22 -5.6 15 -9.4 75 75 SW 9 15 30.04 1017 10 16 0.00 0.00
8:53 pm 20:53 Cloudy 22 -5.6 15 -9.4 75 75 SW 9 15 30.00 1016 10 16 0.00 0.00
9:53 pm 21:53 Cloudy 23 -5 16 -8.9 74 74 S 7 11 29.95 1014 10 16 0.00 0.00
10:53 pm 22:53 Cloudy 24 -4.4 17 -8.3 75 75 S 8 13 29.91 1013 10 16 0.00 0.00
11:53 pm 23:53 Clear 23 -5 17 -8.3 78 78 SSW 6 9 29.88 1012 10 16 0.00 0.00

Powered by AerisWeather